QPF
0.00 0.00 0.00 0.00 0.00 0.00 0.00 0.00 0.00 0.00 0.00 0.00 0.00 0.00 0.00 0.00 0.00 0.00 0.00 0.00 0.00 0.00 0.00 0.00 0.00 0.00 0.00 0.00 0.00 0.00 0.00 0.00 0.00 0.00 0.00 0.00 0.00 0.00 0.00 0.00 0.00 0.00 0.00 0.00 0.00
0.00 0.00 0.00 0.00 0.00 0.00 0.00 0.00 0.00 0.00 0.00 0.00 0.00 0.00 0.00 0.00 0.00 0.00 0.00 0.00 0.00 0.00 0.00 0.00 0.00 0.00 0.00 0.00 0.00 0.00 0.00 0.00 0.00 0.00 0.00 0.00 0.00 0.00 0.00 0.00 0.00 0.00 0.00 0.00 0.00
0.00 0.00 0.00 0.00 0.00 0.00 0.00 0.00 0.00 0.00 0.00 0.00 0.00 0.00 0.00 0.00 0.00 0.00 0.00 0.00 0.00 0.00 0.00 0.00 0.00 0.00 0.00 0.00 0.00 0.00 0.00 0.00 0.00 0.00 0.00 0.00 0.00 0.00 0.00 0.00 0.00 0.00 0.00 0.00 0.00
0.00 0.00 0.00 0.00 0.00 0.00 0.00 0.00 0.00 0.00 0.00 0.00 0.00 0.00 0.00 0.00 0.00 0.00 0.00 0.00 0.00 0.00 0.00 0.00 0.00 0.00 0.00 0.00 0.00 0.00 0.00 0.00 0.03 0.00 0.00 0.00 0.00 0.00 0.00 0.00 0.00 0.00 0.00 0.00 0.00
0.00 0.00 0.00 0.00 0.00 0.00 0.00 0.00 0.00 0.00 0.00 0.00 0.00 0.00 0.00 0.00 0.00 0.00 0.00 0.00 0.00 0.00 0.00 0.00 0.00 0.00 0.00 0.00 0.00 0.00 0.00 0.00 0.00 0.00 0.00 0.00 0.00 0.00 0.00 0.00 0.00 0.00 0.00 0.00 0.00
0.00 0.00 0.00 0.00 0.00 0.00 0.00 0.00 0.00 0.00 0.00 0.00 0.00 0.00 0.00 0.00 0.00 0.00 0.00 0.00 0.00 0.00 0.00 0.00 0.00 0.00 0.00 0.00 0.00 0.00 0.00 0.00 0.00 0.00 0.00 0.00 0.00 0.00 0.00 0.00 0.00 0.00 0.00 0.00 0.00
0.00 0.00 0.00 0.00 0.00 0.00 0.00 0.00 0.00 0.00 0.00 0.00 0.00 0.00 0.00 0.00 0.00 0.00 0.00 0.00 0.00 0.00 0.00 0.00 0.00 0.00 0.00 0.00 0.00 0.00 0.00 0.00 0.00 0.00 0.00 0.01 0.00 0.00 0.00 0.00 0.00 0.00 0.00 0.00 0.00
0.00 0.00 0.00 0.00 0.00 0.00 0.00 0.00 0.00 0.00 0.00 0.00 0.00 0.00 0.00 0.00 0.00 0.00 0.00 0.00 0.00 0.00 0.00 0.00 0.00 0.00 0.00 0.00 0.00 0.00 0.00 0.00 0.00 0.00 0.00 0.00 0.00 0.00 0.00 0.00 0.00 0.00 0.00 0.00 0.00
0.00 0.00 0.00 0.00 0.00 0.00 0.00 0.00 0.00 0.00 0.00 0.00 0.00 0.00 0.00 0.00 0.00 0.00 0.00 0.00 0.00 0.00 0.00 0.00 0.00 0.00 0.00 0.00 0.00 0.00 0.00 0.00 0.00 0.00 0.00 0.00 0.00 0.00 0.00 0.00 0.00 0.00 0.00 0.00 0.00
0.00 0.00 0.00 0.00 0.00 0.00 0.00 0.00 0.00 0.00 0.00 0.00 0.00 0.00 0.00 0.00 0.00 0.00 0.00 0.00 0.00 0.00 0.00 0.00 0.00 0.00 0.00 0.00 0.00 0.00 0.00 0.00 0.00 0.00 0.00 0.00 0.00 0.00 0.00 0.00 0.00 0.00 0.00 0.00 0.00
0.00 0.00 0.00 0.00 0.00 0.00 0.00 0.00 0.00 0.00 0.00 0.00 0.00 0.00 0.00 0.00 0.00 0.00 0.00 0.00 0.00 0.00 0.00 0.00 0.00 0.00 0.00 0.00 0.00 0.00 0.00 0.00 0.00 0.00 0.00 0.00 0.00 0.00 0.00 0.00 0.00 0.00 0.00 0.00 0.00
0.00 0.00 0.00 0.00 0.00 0.00 0.00 0.00 0.00 0.00 0.00 0.00 0.00 0.00 0.00 0.00 0.00 0.00 0.00 0.00 0.00 0.00 0.00 0.00 0.00 0.00 0.00 0.00 0.00 0.00 0.00 0.00 0.00 0.00 0.00 0.00 0.00 0.00 0.00 0.00 0.00 0.00 0.00 0.00 0.00
0.00 0.00 0.00 0.00 0.00 0.00 0.00 0.00 0.00 0.00 0.00 0.00 0.00 0.00 0.00 0.00 0.00 0.00 0.00 0.00 0.00 0.00 0.00 0.00 0.00 0.00 0.00 0.00 0.00 0.00 0.00 0.00 0.00 0.00 0.00 0.00 0.00 0.00 0.00 0.00 0.00 0.00 0.00 0.00 0.00
0.00 0.00 0.00 0.00 0.00 0.00 0.00 0.00 0.00 0.00 0.00 0.00 0.00 0.00 0.00 0.00 0.00 0.00 0.00 0.00 0.00 0.00 0.00 0.00 0.00 0.00 0.00 0.00 0.00 0.00 0.00 0.00 0.00 0.00 0.01 0.00 0.00 0.00 0.00 0.00 0.00 0.00 0.00 0.00 0.00
0.00 0.00 0.00 0.00 0.00 0.00 0.00 0.00 0.00 0.00 0.00 0.00 0.00 0.00 0.00 0.00 0.00 0.00 0.00 0.00 0.00 0.00 0.00 0.00 0.00 0.00 0.00 0.00 0.00 0.00 0.00 0.00 0.00 0.00 0.00 0.00 0.00 0.00 0.00 0.00 0.00 0.00 0.00 0.00 0.00
0.00 0.00 0.00 0.00 0.00 0.00 0.00 0.00 0.00 0.00 0.00 0.00 0.00 0.00 0.00 0.00 0.00 0.00 0.00 0.00 0.00 0.00 0.00 0.00 0.00 0.00 0.00 0.00 0.00 0.00 0.00 0.00 0.00 0.00 0.00 0.00 0.00 0.00 0.00 0.00 0.00 0.00 0.00 0.00 0.00
0.00 0.00 0.00 0.00 0.00 0.00 0.00 0.00 0.00 0.00 0.00 0.00 0.00 0.00 0.00 0.00 0.00 0.00 0.00 0.00 0.00 0.00 0.00 0.00 0.00 0.00 0.00 0.00 0.00 0.00 0.00 0.00 0.00 0.00 0.00 0.00 0.00 0.00 0.00 0.00 0.00 0.00 0.00 0.00 0.00
0.00 0.00 0.00 0.00 0.00 0.00 0.00 0.00 0.00 0.00 0.00 0.00 0.00 0.00 0.00 0.00 0.00 0.00 0.00 0.00 0.00 0.00 0.00 0.00 0.00 0.00 0.00 0.00 0.00 0.00 0.00 0.00 0.00 0.00 0.00 0.00 0.00 0.00 0.00 0.00 0.00 0.00 0.00 0.00 0.00
0.00 0.00 0.00 0.00 0.00 0.00 0.00 0.00 0.00 0.00 0.00 0.00 0.00 0.00 0.00 0.00 0.00 0.00 0.00 0.00 0.00 0.00 0.00 0.00 0.00 0.00 0.00 0.00 0.00 0.00 0.00 0.00 0.00 0.00 0.00 0.00 0.00 0.00 0.00 0.00 0.00 0.00 0.00 0.00 0.00
0.00 0.00 0.00 0.00 0.00 0.00 0.00 0.00 0.00 0.00 0.00 0.00 0.00 0.00 0.00 0.00 0.00 0.00 0.00 0.00 0.00 0.00 0.00 0.00 0.00 0.00 0.00 0.00 0.00 0.00 0.00 0.00 0.00 0.00 0.00 0.00 0.00 0.00 0.00 0.00 0.00 0.00 0.00 0.00 0.00
0.00 0.00 0.00 0.00 0.00 0.00 0.00 0.00 0.00 0.00 0.00 0.00 0.00 0.00 0.00 0.00 0.00 0.00 0.00 0.00 0.00 0.00 0.00 0.00 0.00 0.00 0.00 0.00 0.00 0.00 0.00 0.00 0.00 0.00 0.00 0.00 0.00 0.00 0.00 0.00 0.00 0.00 0.00 0.00 0.00
0.00 0.00 0.00 0.00 0.00 0.00 0.00 0.00 0.00 0.00 0.00 0.00 0.00 0.00 0.00 0.00 0.00 0.00 0.00 0.00 0.00 0.00 0.00 0.00 0.00 0.00 0.00 0.00 0.00 0.00 0.00 0.00 0.00 0.00 0.00 0.00 0.00 0.00 0.00 0.00 0.00 0.00 0.00 0.00 0.00
0.00 0.00 0.00 0.00 0.00 0.00 0.00 0.00 0.00 0.00 0.00 0.00 0.00 0.00 0.00 0.00 0.00 0.00 0.00 0.00 0.00 0.00 0.00 0.00 0.00 0.00 0.00 0.00 0.00 0.00 0.00 0.00 0.00 0.00 0.00 0.00 0.00 0.00 0.00 0.00 0.00 0.00 0.00 0.00 0.00
0.00 0.00 0.00 0.00 0.00 0.00 0.00 0.00 0.00 0.00 0.00 0.00 0.00 0.00 0.00 0.00 0.00 0.00 0.00 0.00 0.00 0.00 0.00 0.00 0.00 0.00 0.00 0.00 0.00 0.00 0.00 0.00 0.00 0.00 0.00 0.00 0.00 0.00 0.00 0.00 0.00 0.00 0.00 0.00 0.00
0.00 0.00 0.00 0.00 0.00 0.00 0.00 0.00 0.00 0.00 0.00 0.00 0.00 0.00 0.00 0.00 0.00 0.00 0.00 0.00 0.00 0.00 0.00 0.00 0.00 0.00 0.00 0.00 0.00 0.00 0.00 0.00 0.00 0.00 0.00 0.00 0.00 0.00 0.00 0.00 0.00 0.00 0.00 0.00 0.00
0.00 0.00 0.00 0.00 0.00 0.00 0.00 0.00 0.00 0.00 0.00 0.00 0.00 0.00 0.00 0.00 0.00 0.00 0.00 0.00 0.00 0.00 0.00 0.00 0.00 0.00 0.00 0.00 0.00 0.00 0.00 0.00 0.00 0.00 0.00 0.00 0.00 0.00 0.00 0.00 0.00 0.00 0.00 0.00 0.00
0.00 0.00 0.00 0.00 0.00 0.00 0.00 0.00 0.00 0.00 0.00 0.00 0.00 0.00 0.00 0.00 0.00 0.00 0.00 0.00 0.00 0.00 0.00 0.00 0.00 0.00 0.00 0.00 0.00 0.00 0.00 0.00 0.00 0.00 0.00 0.00 0.00 0.00 0.00 0.00 0.00 0.00 0.00 0.00 0.00
MSLP
1016.73 1016.50 1016.20 1015.95 1015.73 1015.52 1015.34 1015.16 1015.07 1014.93 1014.80 1014.74 1014.58 1014.38 1014.15 1013.98 1013.61 1013.41 1011.78 1009.69 1009.82 1010.26 1010.66 1011.17 1011.35 1011.29 1011.38 1011.51 1011.83 1012.12 1012.14 1011.99 1011.92 1011.56 1011.24 1010.92 1010.61 1011.01 1011.29 1011.43 1012.05 1012.79 1012.92 1013.24 1014.27
1016.66 1016.46 1016.24 1015.89 1015.63 1015.37 1015.17 1015.04 1014.90 1014.76 1014.61 1014.57 1014.46 1014.26 1014.01 1013.88 1013.31 1011.85 1009.22 1009.43 1009.79 1010.11 1010.48 1010.67 1010.97 1011.27 1011.34 1011.63 1011.87 1011.96 1012.19 1012.24 1012.25 1011.77 1011.48 1011.16 1010.89 1010.88 1011.17 1011.43 1012.10 1012.89 1013.47 1013.84 1014.54
1016.53 1016.27 1016.15 1015.86 1015.52 1015.29 1015.09 1014.90 1014.72 1014.56 1014.43 1014.43 1014.29 1014.12 1013.88 1013.71 1012.52 1009.51 1008.68 1009.32 1009.70 1009.88 1010.09 1010.47 1010.77 1011.06 1011.23 1011.68 1012.09 1012.29 1012.34 1012.51 1012.40 1011.98 1011.72 1011.44 1011.01 1010.96 1010.91 1010.99 1011.40 1012.23 1013.21 1013.86 1014.41
1016.44 1016.16 1015.96 1015.74 1015.44 1015.14 1014.90 1014.74 1014.54 1014.44 1014.32 1014.21 1014.10 1013.93 1013.73 1013.35 1011.24 1009.07 1008.91 1009.26 1009.69 1009.90 1010.21 1010.38 1010.79 1010.95 1011.19 1011.64 1012.21 1012.37 1012.58 1012.64 1012.50 1012.19 1011.92 1011.54 1011.40 1010.95 1010.98 1011.09 1011.11 1012.04 1013.03 1013.71 1014.23
1016.30 1016.06 1015.73 1015.49 1015.27 1014.97 1014.66 1014.61 1014.52 1014.35 1014.20 1014.07 1013.92 1013.74 1013.48 1012.19 1009.73 1008.97 1009.08 1009.55 1010.00 1010.17 1010.08 1010.10 1010.40 1010.69 1011.06 1011.77 1012.19 1012.29 1012.69 1012.91 1012.90 1012.41 1012.23 1011.85 1011.46 1011.38 1011.17 1011.61 1011.75 1012.35 1013.14 1013.59 1014.07
1016.20 1015.89 1015.55 1015.29 1015.03 1014.79 1014.59 1014.42 1014.33 1014.23 1014.12 1014.02 1013.77 1013.63 1012.86 1010.82 1008.86 1008.91 1009.04 1009.73 1009.75 1010.04 1010.05 1010.10 1010.03 1010.51 1011.06 1011.70 1012.02 1012.37 1012.77 1013.01 1012.98 1012.82 1012.59 1012.13 1011.70 1011.39 1011.28 1011.83 1012.12 1012.54 1012.92 1013.52 1013.96
1016.10 1015.76 1015.42 1015.09 1014.86 1014.56 1014.37 1014.23 1014.09 1014.00 1013.98 1013.85 1013.62 1013.38 1012.15 1009.66 1008.97 1009.12 1009.36 1009.40 1009.65 1009.82 1009.81 1009.92 1010.02 1010.38 1011.08 1011.57 1012.04 1012.23 1012.38 1012.63 1012.88 1012.93 1012.87 1012.71 1011.85 1011.46 1011.50 1011.76 1011.98 1012.42 1012.88 1013.35 1013.82
1015.94 1015.59 1015.22 1014.88 1014.58 1014.33 1014.16 1013.97 1013.85 1013.75 1013.75 1013.62 1013.50 1013.09 1010.73 1009.19 1009.13 1009.23 1009.35 1009.63 1009.87 1009.98 1009.84 1009.93 1010.17 1010.61 1011.14 1011.64 1011.90 1011.94 1012.15 1012.03 1012.56 1012.83 1012.93 1012.62 1012.20 1011.61 1011.74 1011.78 1011.91 1012.28 1012.70 1013.14 1013.51
1015.66 1015.36 1015.00 1014.65 1014.36 1014.11 1013.94 1013.57 1013.38 1013.42 1013.44 1013.43 1013.27 1012.37 1009.77 1009.12 1009.05 1009.01 1009.09 1009.20 1009.78 1009.96 1009.92 1010.11 1010.30 1010.82 1011.41 1011.34 1011.53 1011.74 1011.57 1011.77 1012.04 1012.54 1012.87 1012.78 1012.62 1011.54 1011.63 1011.81 1011.77 1012.02 1012.28 1012.72 1013.25
1015.35 1015.02 1014.68 1014.37 1014.13 1013.96 1013.70 1013.35 1013.22 1013.16 1013.35 1013.19 1012.61 1012.00 1009.32 1008.47 1008.40 1008.87 1009.18 1009.17 1009.37 1009.71 1009.96 1010.01 1010.32 1010.51 1011.00 1010.98 1010.67 1010.90 1011.05 1011.28 1011.42 1011.88 1012.56 1012.60 1011.94 1011.41 1011.25 1011.52 1011.42 1011.64 1011.85 1012.15 1012.50
1014.97 1014.64 1014.29 1014.02 1013.88 1013.82 1013.54 1013.29 1013.35 1012.87 1012.37 1010.81 1010.35 1009.55 1008.48 1008.06 1008.03 1008.60 1008.85 1008.90 1009.15 1009.46 1009.47 1009.93 1009.79 1009.45 1009.85 1010.16 1010.30 1010.38 1010.58 1010.56 1010.83 1011.14 1011.63 1011.75 1011.41 1010.92 1010.70 1010.88 1010.98 1010.99 1011.29 1011.47 1011.67
1014.56 1014.20 1013.83 1013.65 1013.63 1013.76 1013.77 1012.24 1010.48 1010.14 1010.08 1009.65 1009.58 1009.07 1008.50 1008.11 1007.83 1008.43 1008.65 1008.64 1008.96 1009.06 1009.49 1009.79 1008.92 1009.22 1009.48 1009.64 1009.96 1009.95 1009.92 1009.99 1010.41 1010.78 1011.23 1011.00 1010.48 1010.09 1009.90 1009.72 1009.93 1010.15 1010.34 1010.62 1011.04
1014.07 1013.68 1013.40 1013.24 1013.36 1013.69 1012.66 1010.75 1009.80 1009.63 1009.29 1008.82 1008.67 1008.22 1007.77 1007.84 1007.61 1007.74 1008.08 1008.18 1008.51 1008.90 1008.90 1008.79 1008.58 1008.88 1009.01 1008.95 1009.21 1008.97 1009.16 1009.41 1009.91 1010.63 1010.77 1010.58 1009.29 1008.81 1008.62 1009.03 1009.30 1009.46 1009.60 1009.86 1010.32
1013.54 1013.11 1012.96 1012.99 1013.46 1012.24 1011.26 1009.64 1009.69 1009.54 1008.82 1008.19 1007.87 1007.09 1007.41 1007.32 1007.39 1007.21 1007.40 1007.57 1008.23 1008.31 1008.69 1008.47 1008.20 1008.14 1008.24 1008.36 1008.57 1008.38 1008.77 1009.16 1009.65 1009.93 1010.00 1010.20 1008.86 1007.85 1007.91 1007.96 1008.30 1008.38 1008.75 1009.02 1009.60
1012.87 1012.48 1012.40 1012.71 1011.82 1011.19 1009.96 1009.61 1009.49 1009.30 1008.02 1007.34 1007.01 1006.83 1006.92 1006.91 1006.79 1007.18 1007.19 1007.23 1007.50 1007.88 1008.37 1007.91 1007.75 1007.58 1007.59 1007.65 1008.16 1008.44 1008.47 1008.84 1009.42 1009.81 1009.94 1009.69 1009.37 1007.01 1007.33 1007.13 1006.98 1007.28 1007.59 1008.02 1008.62
1012.19 1011.75 1011.87 1012.37 1012.05 1010.21 1009.85 1009.55 1009.23 1008.66 1007.25 1006.55 1006.48 1006.54 1006.60 1006.51 1006.47 1006.89 1006.91 1006.99 1007.52 1007.75 1007.92 1007.63 1007.66 1007.31 1006.99 1007.65 1007.89 1008.35 1008.49 1008.90 1009.47 1009.58 1009.16 1008.95 1008.49 1006.01 1005.81 1005.62 1005.70 1006.13 1006.47 1007.00 1007.65
1011.53 1010.99 1011.42 1010.99 1010.33 1009.95 1009.75 1009.32 1008.69 1007.79 1007.14 1006.67 1006.25 1006.25 1006.10 1006.13 1006.22 1006.30 1006.58 1006.81 1007.03 1007.48 1007.13 1007.00 1006.69 1006.39 1006.59 1007.04 1007.90 1007.96 1007.74 1007.84 1008.28 1008.43 1008.20 1008.64 1007.99 1005.32 1004.99 1005.04 1005.08 1005.10 1005.48 1006.01 1006.80
1011.37 1011.16 1011.03 1010.50 1010.17 1009.93 1009.36 1008.78 1008.08 1007.52 1006.96 1006.60 1006.23 1006.20 1005.96 1005.81 1005.94 1006.13 1006.30 1006.50 1007.11 1007.14 1006.80 1006.22 1005.69 1005.50 1005.45 1005.59 1006.02 1007.06 1007.11 1006.76 1006.85 1007.20 1007.42 1008.01 1006.40 1004.51 1004.39 1004.49 1004.60 1004.58 1004.89 1005.54 1006.26
1011.12 1010.93 1010.52 1009.96 1009.95 1009.94 1009.06 1008.44 1008.07 1007.72 1007.24 1006.66 1006.26 1006.05 1005.90 1005.76 1005.73 1006.00 1006.04 1005.80 1005.78 1006.24 1006.33 1005.98 1005.59 1005.31 1005.17 1005.21 1005.60 1006.64 1006.69 1006.36 1006.41 1007.40 1006.88 1006.21 1005.11 1004.07 1004.07 1004.12 1004.34 1004.38 1004.81 1005.28 1005.86
1010.86 1010.17 1009.94 1009.75 1009.77 1009.47 1008.89 1008.57 1008.44 1008.08 1007.43 1007.01 1006.51 1006.23 1005.75 1005.68 1005.83 1005.97 1005.84 1005.30 1005.25 1005.20 1005.25 1005.62 1005.45 1004.78 1004.72 1005.02 1005.50 1005.47 1005.56 1006.03 1006.05 1005.72 1005.46 1005.23 1004.64 1003.55 1003.35 1003.70 1004.23 1004.42 1004.69 1005.27 1005.79
1010.59 1009.76 1009.51 1009.41 1009.54 1008.99 1009.01 1009.03 1008.68 1008.16 1007.92 1007.38 1006.94 1006.61 1006.31 1006.04 1005.90 1005.75 1005.37 1005.13 1005.08 1005.25 1005.60 1005.40 1005.60 1004.01 1004.62 1004.21 1004.08 1005.16 1005.22 1005.39 1005.39 1005.06 1004.21 1004.07 1003.35 1002.93 1002.93 1003.25 1003.55 1004.09 1004.54 1005.07 1005.49
1010.76 1009.80 1009.42 1009.09 1009.41 1010.42 1009.92 1009.86 1009.40 1008.60 1008.24 1007.76 1007.40 1007.17 1006.97 1006.75 1006.32 1006.02 1005.54 1005.39 1005.54 1005.41 1005.56 1005.53 1005.11 1004.16 1003.55 1003.64 1003.76 1003.95 1003.93 1004.22 1004.30 1004.45 1004.49 1003.71 1002.80 1002.56 1002.76 1003.09 1003.37 1003.66 1004.22 1004.84 1005.39
1011.84 1011.09 1009.75 1009.30 1010.21 1010.84 1010.84 1010.31 1009.91 1009.29 1008.94 1008.52 1008.06 1007.98 1007.81 1007.50 1007.28 1006.65 1006.17 1005.99 1005.94 1005.69 1005.48 1005.61 1005.14 1004.20 1003.25 1003.61 1003.91 1003.37 1003.27 1003.25 1003.54 1003.80 1003.28 1002.70 1002.23 1002.36 1002.72 1002.86 1003.19 1003.38 1003.79 1004.44 1005.04
1012.70 1012.13 1011.54 1011.53 1012.54 1011.98 1011.75 1011.28 1010.57 1010.19 1009.82 1009.62 1009.13 1008.71 1008.45 1008.17 1008.03 1007.45 1006.85 1006.37 1006.29 1006.04 1005.94 1005.65 1004.82 1003.97 1003.13 1002.59 1002.95 1002.86 1002.77 1002.85 1002.57 1002.32 1001.98 1001.71 1001.45 1001.70 1001.97 1002.31 1002.75 1003.22 1003.48 1004.05 1004.63
1014.09 1015.02 1015.15 1013.93 1013.51 1013.27 1012.99 1012.52 1011.71 1011.09 1010.79 1010.37 1009.77 1009.71 1009.55 1009.01 1008.56 1008.24 1007.88 1007.18 1006.64 1006.60 1006.31 1006.03 1004.98 1004.31 1003.39 1002.84 1002.85 1002.57 1002.30 1002.53 1002.08 1001.25 1001.16 1000.57 1001.09 1000.77 1001.14 1001.74 1002.00 1002.72 1003.51 1003.91 1004.50
1015.91 1016.19 1015.86 1015.31 1014.84 1014.13 1013.95 1013.59 1012.98 1012.56 1012.08 1011.11 1010.92 1010.70 1010.34 1009.90 1009.86 1009.42 1009.14 1008.41 1007.51 1006.94 1006.72 1006.65 1005.51 1004.90 1003.70 1002.83 1002.53 1002.08 1001.78 1001.90 1001.91 1001.56 1000.99 1000.74 1000.47 1000.70 1001.28 1001.70 1001.93 1002.27 1003.04 1003.53 1004.13
1017.71 1017.45 1016.74 1016.22 1015.40 1014.86 1014.71 1014.49 1013.95 1013.80 1012.74 1012.32 1012.24 1011.64 1010.91 1010.79 1010.82 1010.34 1010.01 1009.36 1008.72 1008.42 1007.59 1007.10 1006.17 1005.42 1003.91 1003.34 1002.80 1001.97 1001.39 1001.04 1000.92 1001.01 1000.55 1000.26 999.81 1000.59 1001.05 1001.28 1001.27 1001.64 1002.30 1002.77 1003.53
Thickness
5746 5748 5749 5751 5752 5754 5755 5756 5757 5758 5758 5759 5760 5763 5765 5766 5769 5772 5779 5801 5801 5798 5793 5786 5782 5780 5778 5770 5770 5767 5747 5739 5740 5742 5750 5766 5762 5770 5772 5762 5760 5756 5753 5755 5751
5749 5750 5750 5752 5754 5756 5757 5757 5758 5759 5760 5760 5761 5762 5764 5766 5770 5776 5805 5804 5801 5798 5790 5782 5773 5774 5765 5762 5763 5755 5742 5741 5749 5754 5752 5760 5762 5766 5762 5759 5753 5750 5752 5751 5747
5751 5752 5752 5753 5754 5756 5757 5758 5759 5760 5760 5760 5761 5763 5765 5766 5773 5792 5808 5803 5801 5799 5795 5788 5781 5773 5761 5762 5756 5752 5740 5746 5749 5755 5758 5758 5760 5768 5762 5756 5762 5754 5748 5748 5746
5751 5752 5752 5753 5754 5756 5757 5758 5759 5760 5761 5761 5762 5763 5764 5767 5765 5798 5804 5803 5799 5797 5790 5782 5773 5762 5756 5751 5755 5744 5748 5745 5746 5753 5752 5753 5759 5760 5764 5761 5773 5765 5756 5751 5745
5751 5750 5751 5752 5753 5755 5757 5758 5758 5760 5761 5762 5762 5763 5766 5771 5781 5801 5802 5798 5794 5789 5781 5777 5768 5764 5754 5751 5750 5747 5744 5743 5743 5749 5750 5756 5753 5752 5759 5762 5767 5762 5754 5750 5747
5749 5749 5749 5751 5753 5755 5756 5758 5759 5760 5761 5761 5762 5762 5768 5767 5801 5801 5800 5794 5790 5784 5778 5778 5774 5772 5757 5750 5748 5750 5743 5739 5738 5739 5743 5745 5748 5756 5760 5762 5758 5757 5753 5750 5747
5749 5749 5750 5752 5753 5756 5757 5759 5761 5762 5761 5762 5762 5764 5768 5783 5800 5798 5796 5792 5791 5785 5774 5781 5781 5769 5761 5748 5755 5750 5740 5741 5735 5732 5733 5739 5742 5746 5759 5760 5756 5754 5751 5750 5748
5748 5750 5752 5753 5755 5757 5759 5761 5762 5763 5762 5763 5763 5765 5771 5797 5797 5795 5793 5787 5788 5785 5782 5784 5781 5767 5758 5757 5749 5742 5741 5730 5736 5736 5734 5738 5720 5746 5756 5754 5752 5751 5750 5749 5748
5749 5751 5753 5755 5757 5759 5760 5763 5765 5764 5763 5763 5764 5767 5774 5797 5789 5794 5794 5783 5781 5780 5780 5780 5773 5757 5753 5741 5735 5736 5728 5727 5731 5738 5731 5729 5715 5741 5757 5751 5750 5751 5751 5749 5747
5751 5753 5755 5757 5759 5760 5762 5764 5764 5764 5763 5763 5766 5763 5784 5784 5793 5791 5792 5788 5776 5772 5765 5764 5758 5750 5743 5740 5727 5733 5733 5733 5733 5738 5730 5725 5727 5744 5755 5750 5751 5751 5753 5751 5751
5752 5755 5758 5760 5760 5760 5761 5764 5764 5764 5764 5778 5778 5778 5786 5796 5799 5786 5789 5782 5777 5765 5749 5754 5747 5745 5751 5751 5751 5748 5739 5738 5744 5748 5735 5730 5734 5743 5753 5753 5751 5754 5755 5755 5756
5754 5757 5760 5761 5761 5759 5758 5769 5781 5783 5773 5779 5777 5778 5786 5791 5778 5779 5789 5770 5762 5748 5751 5745 5744 5756 5758 5756 5748 5747 5743 5743 5748 5750 5741 5738 5738 5750 5756 5758 5761 5759 5761 5761 5761
5756 5759 5762 5763 5762 5758 5765 5778 5786 5786 5770 5777 5778 5779 5784 5787 5776 5776 5782 5772 5759 5747 5749 5744 5754 5759 5756 5756 5749 5756 5749 5749 5747 5746 5748 5741 5746 5754 5764 5765 5765 5767 5769 5769 5765
5757 5761 5763 5763 5762 5769 5774 5786 5785 5785 5759 5769 5774 5785 5785 5786 5772 5790 5790 5778 5760 5751 5748 5750 5763 5759 5758 5752 5757 5748 5763 5758 5749 5746 5735 5747 5737 5758 5762 5766 5767 5772 5771 5772 5769
5760 5764 5766 5763 5773 5774 5784 5784 5784 5780 5736 5773 5775 5798 5788 5780 5783 5776 5790 5779 5758 5755 5753 5751 5756 5757 5754 5760 5762 5754 5765 5759 5752 5741 5738 5739 5731 5770 5762 5761 5772 5776 5780 5781 5779
5764 5768 5767 5764 5764 5780 5781 5784 5782 5753 5735 5767 5778 5773 5772 5777 5777 5777 5777 5784 5775 5758 5755 5757 5767 5766 5767 5762 5765 5763 5755 5750 5743 5737 5728 5739 5741 5771 5774 5780 5782 5786 5788 5786 5784
5767 5772 5769 5771 5779 5779 5780 5777 5754 5740 5767 5761 5767 5772 5771 5767 5769 5771 5764 5758 5751 5734 5740 5755 5761 5775 5773 5758 5758 5756 5753 5733 5728 5726 5731 5735 5734 5774 5788 5792 5794 5796 5795 5795 5791
5765 5767 5769 5772 5774 5776 5778 5766 5734 5751 5755 5770 5769 5766 5761 5769 5767 5764 5759 5751 5754 5751 5742 5740 5739 5767 5782 5773 5763 5752 5756 5741 5715 5725 5737 5735 5742 5776 5794 5799 5802 5803 5804 5799 5792
5764 5766 5768 5773 5773 5772 5768 5744 5744 5748 5760 5761 5764 5755 5755 5764 5767 5760 5757 5760 5769 5763 5742 5739 5739 5771 5772 5777 5773 5747 5744 5768 5743 5725 5734 5748 5768 5790 5792 5791 5795 5799 5798 5794 5792
5765 5769 5767 5769 5770 5770 5759 5736 5745 5753 5761 5761 5749 5757 5750 5757 5756 5755 5754 5769 5765 5773 5779 5759 5738 5770 5773 5776 5768 5766 5774 5745 5745 5721 5719 5740 5746 5767 5788 5787 5787 5791 5795 5792 5791
5765 5765 5767 5769 5768 5763 5744 5741 5743 5756 5755 5751 5748 5749 5752 5754 5756 5754 5762 5772 5772 5767 5768 5768 5752 5768 5768 5765 5766 5754 5752 5752 5754 5750 5743 5734 5755 5793 5792 5795 5793 5793 5796 5794 5792
5759 5755 5766 5769 5752 5729 5738 5734 5736 5748 5753 5751 5752 5747 5743 5744 5746 5746 5752 5762 5770 5769 5755 5764 5756 5748 5762 5779 5780 5772 5768 5766 5747 5738 5739 5746 5756 5798 5797 5796 5800 5799 5797 5796 5793
5745 5743 5761 5763 5738 5730 5729 5734 5736 5738 5739 5740 5741 5741 5740 5736 5731 5739 5745 5759 5761 5760 5755 5756 5744 5736 5753 5763 5762 5764 5769 5774 5767 5758 5743 5746 5759 5795 5793 5794 5797 5800 5801 5797 5794
5738 5739 5739 5736 5717 5722 5718 5718 5724 5733 5730 5728 5730 5735 5731 5727 5727 5728 5735 5746 5750 5752 5747 5749 5745 5744 5739 5759 5763 5755 5761 5765 5772 5756 5761 5761 5776 5789 5794 5793 5795 5797 5801 5800 5795
5721 5705 5700 5712 5713 5708 5707 5708 5710 5713 5720 5721 5721 5716 5711 5712 5717 5716 5723 5730 5740 5736 5738 5737 5726 5736 5747 5757 5754 5756 5762 5756 5758 5778 5761 5780 5767 5793 5800 5797 5800 5800 5797 5796 5792
5707 5701 5698 5697 5695 5702 5695 5696 5698 5697 5699 5705 5701 5702 5704 5701 5699 5696 5700 5707 5713 5726 5724 5721 5716 5718 5723 5749 5748 5742 5759 5759 5758 5762 5768 5772 5774 5798 5795 5796 5796 5797 5794 5793 5792
5682 5683 5688 5681 5690 5693 5688 5685 5689 5686 5696 5695 5686 5687 5691 5692 5689 5692 5694 5698 5701 5696 5702 5703 5707 5703 5706 5731 5728 5718 5744 5759 5763 5766 5773 5757 5789 5787 5784 5787 5796 5798 5795 5794 5794